Lid_Strength_Index
20 19 17 17 18 16 16 15 20 22 20 20 18 17 17 17 14 17 17 18 19 16 15 15 15 15 14 14 13 13 13 13 12 11 10 10 10 10 10 10 10 11 11 11
26 23 16 17 16 14 15 15 15 16 17 14 15 17 18 17 17 18 17 17 18 18 18 18 16 15 15 15 14 13 14 13 12 11 11 12 12 11 12 12 12 12 13 12
28 25 26 24 20 16 16 15 15 20 16 15 16 15 16 16 15 16 15 14 16 16 18 19 18 16 15 15 14 14 14 13 12 12 13 13 12 13 13 14 13 14 13 13
29 26 28 18 16 15 15 16 14 14 15 14 14 14 14 13 14 14 14 14 15 15 16 16 17 17 15 15 15 14 14 13 13 13 14 14 14 14 14 14 14 15 15 15
28 31 22 19 16 16 15 15 13 13 13 14 14 13 13 12 12 13 14 14 15 15 16 16 16 16 15 16 16 15 15 15 14 14 14 14 15 15 15 15 15 16 15 16
32 30 29 19 14 13 14 18 13 12 13 14 14 16 15 14 13 13 14 14 14 14 15 16 16 15 15 16 16 17 15 15 15 14 15 16 16 15 15 15 15 15 14 14
24 30 23 18 14 14 20 15 13 12 13 13 14 13 14 13 14 14 14 14 14 15 15 16 17 15 16 16 17 17 16 15 15 15 14 14 14 14 14 14 14 15 15 14
26 25 26 16 15 16 14 13 12 13 12 12 12 13 13 13 14 14 14 14 14 15 16 17 17 16 16 17 18 17 16 15 15 15 14 14 14 14 14 14 15 15 15 15
21 21 17 14 13 12 13 13 13 13 12 12 13 13 13 13 14 14 14 14 15 16 18 20 21 19 18 20 20 17 14 14 15 15 14 14 14 14 15 15 15 15 16 16
21 18 17 16 13 13 13 12 12 13 12 12 13 13 13 14 14 14 15 17 19 19 20 21 22 20 21 22 22 15 15 14 14 16 17 16 15 14 14 15 16 16 16 16
21 18 19 16 16 14 13 12 13 13 13 12 13 13 13 14 14 15 16 19 19 19 19 20 22 23 26 24 23 16 15 15 15 15 16 18 17 16 15 14 14 16 15 15
19 16 15 16 16 15 15 14 12 12 14 14 13 13 14 14 15 16 17 20 21 18 21 21 24 24 27 28 22 16 16 16 15 16 16 19 20 20 15 14 14 14 15 15
15 18 17 18 20 19 16 15 14 13 12 14 15 13 15 15 17 16 19 20 19 18 19 22 23 24 27 27 19 16 16 15 15 15 16 21 23 22 21 20 15 16 16 16
18 19 19 21 15 18 18 20 19 17 16 14 14 19 16 16 23 18 18 17 18 20 21 21 23 23 25 26 18 17 15 15 15 15 16 18 24 25 26 24 24 24 22 18
16 17 15 21 23 21 24 25 21 18 16 18 19 15 16 16 16 16 16 19 21 22 21 23 23 22 26 26 19 17 17 16 15 15 16 16 22 26 26 27 27 28 28 22
18 17 19 20 17 20 22 26 20 17 18 17 18 17 15 14 14 15 18 22 21 20 20 22 21 23 26 26 19 17 18 17 16 17 16 17 19 26 27 28 28 28 28 26
20 20 25 23 18 17 19 16 16 15 17 17 15 14 16 16 21 19 20 21 18 18 19 20 19 25 25 24 19 17 17 17 17 19 20 18 17 25 27 29 28 29 27 28
15 14 19 19 18 19 19 18 17 16 17 16 17 18 17 19 16 15 18 21 29 29 28 23 24 24 25 24 20 17 17 17 17 18 20 24 25 26 28 28 28 28 28 29
15 16 15 18 18 19 18 18 18 17 17 18 18 17 16 16 15 14 19 22 22 21 19 25 22 24 24 24 21 18 17 17 18 18 18 24 28 28 28 28 28 28 29 29
22 23 23 19 21 19 17 20 21 20 19 19 18 18 17 16 16 19 21 19 18 18 21 22 23 25 24 24 21 19 18 17 18 19 21 23 25 25 26 27 27 28 29 30
25 26 25 24 22 22 20 20 22 20 21 20 20 18 17 16 17 19 22 19 17 23 23 23 21 22 23 23 22 22 20 19 21 22 24 24 24 25 25 25 25 26 26 27
25 27 27 27 28 26 26 23 23 22 24 21 20 19 21 20 21 21 18 17 22 22 23 23 22 22 22 23 22 23 23 23 23 23 23 24 24 24 24 24 24 24 25 26
25 25 28 30 30 28 30 30 27 24 23 22 21 21 20 18 21 22 22 20 27 24 22 22 23 22 22 22 22 22 23 23 23 23 23 23 23 23 23 23 23 23 25 25
27 25 26 28 33 31 28 28 31 31 30 28 25 24 23 25 27 29 30 26 24 23 25 24 22 21 22 22 22 22 22 22 22 23 23 23 24 25 25 24 24 25 25 25
28 26 24 24 24 26 27 27 28 29 28 28 29 29 28 28 21 24 26 27 24 25 26 23 22 22 23 23 23 23 22 23 23 23 23 24 25 25 25 25 25 25 25 25
30 28 28 27 25 26 26 28 27 28 28 27 29 29 29 28 27 26 26 25 26 26 26 25 24 23 24 24 23 23 24 24 24 24 24 24 25 25 25 25 25 25 25 25
28 27 27 26 25 27 27 27 26 27 29 27 26 28 28 27 25 25 25 26 26 26 26 25 24 25 25 25 25 25 25 25 25 25 25 25 25 25 25 25 25 25 25 25